Wind_Speed
12 12 12 12 12 12 12 12 12 12 12 12 12 12 12 12 12 11 11 11 12 12 12 12 12 13 13 13 13 13 13 13 13 13 13 13 13 13 13 14 13 13 14
12 12 12 11 11 12 13 13 13 13 13 13 13 13 12 12 12 12 12 11 12 12 12 12 12 13 13 13 13 13 13 13 13 13 13 14 14 14 14 14 14 14 14
10 11 11 11 12 13 14 14 13 12 13 13 13 13 12 12 12 12 12 12 12 12 12 12 13 13 13 13 14 13 13 13 13 14 14 14 15 15 15 15 14 14 14
11 11 11 12 12 13 13 14 13 13 13 13 13 13 12 12 12 12 12 12 12 12 12 12 12 13 13 14 14 14 14 14 14 14 14 14 14 15 16 16 16 15 15
11 11 11 12 12 13 13 14 14 14 13 13 13 13 13 13 13 12 12 12 12 12 12 12 13 13 13 13 14 13 14 14 14 14 14 14 14 15 16 15 15 15 15
12 12 12 12 13 14 13 13 14 13 13 13 13 13 13 13 13 13 13 13 13 13 13 13 13 14 13 14 14 14 14 14 14 14 15 15 15 16 15 15 15 15 15
12 13 13 14 14 14 14 14 13 13 13 14 13 13 13 13 13 14 14 14 14 14 14 14 14 14 14 14 14 14 14 14 14 14 14 15 15 16 16 16 15 16 16
13 13 15 15 14 14 14 14 14 14 14 14 14 14 14 13 13 14 14 15 15 15 14 14 14 14 14 15 15 15 15 15 15 15 15 15 16 16 16 16 16 16 16
13 14 15 15 15 15 15 15 15 15 15 15 14 14 14 14 14 14 15 15 15 15 15 14 15 15 15 15 16 16 15 16 16 16 16 16 16 16 17 17 17 17 17
15 15 15 15 15 16 15 15 15 14 14 14 14 14 14 14 15 16 16 15 15 15 15 15 15 15 15 15 16 16 16 16 17 17 17 17 16 16 17 18 19 19 18
15 15 15 15 16 16 16 16 15 14 14 14 14 14 15 15 15 16 16 16 15 15 15 16 16 16 16 17 17 17 17 17 17 17 17 18 18 17 17 18 18 19 19
16 16 15 15 15 16 16 16 15 14 15 15 15 15 15 15 15 15 16 16 16 16 16 17 17 17 17 18 18 18 18 18 18 18 19 19 19 18 18 18 18 18 19
16 16 16 15 15 15 16 16 15 15 15 15 16 16 16 16 16 16 16 16 17 17 17 17 17 17 18 18 18 18 18 19 19 19 19 20 20 19 19 19 19 19 19
16 16 16 16 16 16 16 16 16 16 16 16 16 16 16 17 17 17 17 17 17 17 17 17 17 17 18 18 18 19 19 19 20 20 20 20 19 19 19 19 19 19 20
16 16 17 17 16 17 17 17 17 16 17 17 17 17 17 18 18 18 18 18 17 18 18 18 18 18 18 19 19 19 19 19 19 19 19 19 19 19 19 19 19 20 21
18 17 17 17 17 17 18 18 18 18 18 18 18 18 18 18 18 18 18 18 18 18 18 18 18 18 19 19 20 19 19 19 19 19 19 19 19 19 19 20 20 20 20
19 19 19 18 18 19 18 19 19 19 19 20 19 19 19 19 19 19 19 19 19 19 18 18 18 18 18 19 19 19 19 19 19 19 19 19 19 19 19 20 20 20 21
20 21 21 21 20 20 20 20 20 21 20 20 20 20 20 20 20 20 20 20 20 19 19 19 20 19 19 19 18 19 19 19 20 19 19 18 19 19 19 19 20 20 21
23 23 22 22 22 22 22 22 21 21 21 21 21 20 20 21 20 20 20 20 20 19 19 19 20 20 20 20 20 20 20 20 20 20 19 19 19 19 19 20 21 21 22
23 23 23 23 23 23 23 23 23 22 22 22 22 21 21 21 21 21 21 20 20 20 20 20 20 20 20 20 20 20 20 20 21 20 20 20 20 20 20 21 22 22 22
24 24 24 24 24 24 24 24 23 23 22 23 23 22 22 22 22 22 22 21 21 21 20 20 20 20 20 20 20 20 20 21 21 21 21 22 22 22 22 22 23 23 23
25 26 25 25 25 25 24 24 24 24 23 23 23 23 23 22 22 22 22 22 21 21 20 20 20 20 20 20 20 21 21 22 22 22 22 22 22 22 23 24 24 25 24
26 26 26 26 26 25 25 25 24 24 24 24 23 23 23 22 22 22 22 22 22 21 21 22 21 21 21 21 21 22 22 22 23 23 23 23 23 23 24 25 25 26 25
27 26 27 26 26 26 26 25 25 24 24 24 23 23 23 23 22 22 22 22 22 22 22 22 22 22 22 22 22 23 23 23 23 23 23 23 24 25 26 26 26 26 25
28 28 28 27 27 26 26 26 26 26 25 25 24 24 24 24 23 23 23 23 24 23 23 23 23 23 23 23 24 24 24 24 25 24 24 24 25 25 26 26 26 26 26
29 29 29 29 29 28 28 28 28 27 26 26 25 25 25 25 24 24 24 24 25 25 25 24 24 24 25 25 25 25 25 25 25 25 25 25 25 26 27 27 27 26 26
Wind_Direction
304 306 307 305 302 305 306 304 302 299 297 295 295 294 290 286 284 278 277 277 275 273 273 272 272 273 274 274 275 275 274 273 273 272 272 272 274 274 275 273 270 272 273
307 309 308 304 303 304 304 303 300 297 295 294 293 293 291 288 285 281 280 279 277 275 271 271 273 273 273 273 274 275 275 274 274 274 272 270 272 270 273 271 268 270 271
309 312 308 304 304 306 307 305 302 297 294 294 292 291 288 285 284 282 281 280 279 279 278 274 274 272 271 272 274 275 275 277 275 274 273 272 272 271 271 271 272 272 271
308 311 308 304 303 306 306 305 302 298 296 294 292 291 288 285 283 282 280 279 279 280 279 276 275 275 272 273 273 274 274 276 275 274 273 270 271 272 270 270 271 271 270
307 306 306 305 304 304 304 302 300 299 297 295 292 289 287 285 284 281 280 280 279 279 276 276 275 277 275 276 275 274 275 275 276 275 273 269 268 271 272 271 270 269 267
304 303 304 306 305 303 303 300 298 299 297 295 292 288 285 284 281 278 278 279 278 276 274 277 277 275 274 276 276 275 276 276 275 277 276 272 270 272 272 269 268 268 267
301 303 305 306 305 303 301 300 298 298 296 293 289 287 285 284 282 278 277 279 279 277 275 277 277 275 274 274 274 274 275 278 277 278 279 274 270 272 269 268 267 266 266
301 303 305 304 302 301 300 300 300 297 294 290 287 285 286 285 283 282 279 278 279 278 276 275 276 276 275 273 273 274 276 278 277 278 278 277 274 271 270 267 265 266 267
300 301 303 304 302 300 301 301 298 295 293 291 288 285 284 284 285 284 283 281 279 277 275 274 273 273 274 275 273 272 274 276 277 277 277 277 277 272 269 268 267 268 269
298 300 300 300 298 297 298 299 298 298 295 291 289 287 285 285 287 287 285 284 281 278 277 276 274 274 273 274 275 274 274 275 275 276 276 277 278 275 272 269 269 270 270
297 298 300 299 297 298 298 298 300 297 296 293 291 289 289 287 288 287 284 284 283 279 276 274 274 273 274 275 273 272 274 275 276 276 277 277 276 276 273 271 271 272 271
295 296 296 297 296 296 298 298 297 296 294 293 293 292 290 290 290 288 285 283 282 280 276 275 273 274 276 275 272 272 274 275 276 276 276 277 277 278 274 271 271 272 272
292 293 295 296 296 295 296 296 295 294 293 295 293 290 289 290 292 291 287 285 283 282 279 277 275 274 275 276 274 274 275 276 276 276 277 277 277 276 273 270 270 271 272
291 293 295 296 296 296 295 294 293 293 294 294 293 290 287 289 290 291 289 287 284 282 280 279 278 276 276 276 276 276 276 277 277 277 277 277 276 274 271 270 270 271 271
288 290 292 294 295 296 295 294 294 293 294 294 292 289 286 287 288 289 289 287 284 282 281 279 278 276 277 277 276 276 277 276 275 276 276 275 276 274 271 270 271 272 271
286 288 290 293 294 294 294 293 294 294 293 293 291 289 287 286 286 286 288 288 285 283 280 278 278 278 279 279 276 275 277 275 275 276 276 274 274 273 271 271 273 274 274
286 286 289 293 292 291 290 290 290 292 293 292 292 290 287 284 285 285 286 286 284 281 278 276 277 279 280 281 278 274 275 275 276 276 275 274 273 271 269 270 271 273 275
282 284 286 290 290 289 288 287 288 290 291 292 292 290 289 285 283 284 285 285 284 280 277 275 276 279 280 281 279 278 276 276 277 278 276 274 273 271 270 271 272 274 276
281 281 283 286 289 289 289 288 289 289 290 291 291 290 289 287 285 285 285 285 284 281 277 275 277 279 280 280 281 280 279 278 278 278 277 274 273 272 272 273 274 276 278
278 277 279 282 285 287 288 288 288 288 289 289 289 289 288 287 286 285 286 284 282 281 279 277 277 277 280 280 281 281 280 279 278 278 278 277 275 273 273 276 278 278 279
276 277 278 281 282 284 286 286 287 288 289 289 288 287 287 287 286 285 286 284 282 281 281 280 278 278 279 282 281 280 280 280 279 279 279 277 276 274 274 277 280 281 281
276 276 278 280 281 282 283 284 284 285 287 287 287 286 286 287 286 284 284 283 283 282 281 282 281 281 279 280 281 282 281 281 280 279 278 277 275 276 277 277 279 280 281
276 277 277 278 279 280 281 283 284 284 285 285 285 284 284 284 285 283 281 280 281 281 281 281 280 281 281 280 281 282 281 280 279 278 279 279 277 277 278 279 280 280 279
276 277 277 276 277 277 278 280 282 282 283 283 283 283 283 283 284 284 281 279 279 280 281 280 280 280 281 280 282 283 284 283 280 279 279 279 279 279 279 281 280 280 278
275 277 277 277 277 277 277 279 280 280 281 282 281 281 282 282 282 282 281 280 278 278 279 279 280 280 281 281 283 284 286 285 282 280 279 280 280 280 280 280 279 278 278
273 274 276 277 278 277 278 279 280 280 280 280 280 280 280 280 279 279 280 280 279 278 278 277 279 280 281 280 281 283 285 284 282 280 280 280 281 282 281 279 279 278 278
Height
5852 5851 5850 5849 5847 5846 5845 5843 5842 5841 5840 5839 5838 5836 5835 5834 5833 5833 5832 5831 5830 5829 5829 5829 5828 5828 5828 5828 5827 5827 5827 5827 5826 5826 5826 5825 5825 5825 5825 5824 5824 5824 5824
5849 5848 5847 5846 5845 5844 5842 5840 5839 5838 5837 5836 5834 5833 5832 5831 5830 5829 5828 5828 5827 5826 5825 5825 5824 5824 5824 5824 5823 5823 5823 5823 5822 5822 5822 5822 5822 5821 5821 5821 5820 5820 5820
5847 5845 5844 5843 5842 5840 5839 5837 5836 5834 5833 5832 5831 5829 5828 5827 5826 5825 5825 5824 5823 5822 5821 5821 5820 5820 5819 5819 5819 5819 5819 5818 5818 5818 5818 5817 5817 5817 5817 5816 5817 5817 5816
5844 5842 5841 5840 5838 5837 5835 5834 5832 5831 5830 5828 5827 5826 5825 5824 5823 5822 5821 5820 5819 5818 5817 5817 5816 5816 5815 5815 5815 5815 5815 5814 5814 5813 5813 5813 5813 5813 5813 5813 5812 5812 5812
5840 5839 5838 5837 5835 5834 5832 5830 5829 5828 5826 5825 5823 5822 5821 5820 5819 5818 5817 5816 5815 5815 5814 5813 5813 5812 5812 5811 5811 5811 5810 5810 5810 5809 5809 5809 5809 5809 5809 5808 5808 5808 5808
5837 5836 5835 5833 5832 5830 5829 5827 5825 5824 5822 5821 5820 5818 5817 5816 5815 5815 5814 5813 5812 5811 5810 5810 5809 5809 5808 5807 5807 5807 5807 5806 5806 5805 5805 5804 5804 5805 5805 5804 5804 5804 5804
5834 5832 5831 5829 5828 5826 5825 5823 5822 5820 5818 5817 5815 5814 5813 5812 5811 5811 5810 5809 5808 5807 5806 5806 5805 5805 5804 5804 5803 5803 5803 5802 5802 5801 5800 5800 5800 5800 5800 5800 5799 5799 5799
5830 5829 5827 5826 5824 5823 5821 5819 5817 5816 5814 5812 5811 5810 5809 5808 5807 5806 5805 5804 5803 5803 5802 5801 5801 5801 5800 5800 5799 5799 5799 5798 5797 5797 5796 5796 5795 5795 5795 5795 5795 5794 5795
5827 5825 5823 5822 5820 5819 5817 5815 5813 5811 5810 5808 5807 5806 5805 5804 5803 5802 5801 5800 5799 5798 5798 5797 5796 5796 5796 5795 5795 5795 5794 5794 5793 5792 5792 5791 5791 5790 5790 5790 5790 5790 5790
5823 5821 5820 5818 5816 5815 5813 5811 5809 5807 5805 5804 5802 5801 5800 5799 5798 5797 5796 5795 5794 5794 5793 5793 5792 5792 5791 5791 5790 5790 5790 5789 5788 5788 5787 5786 5786 5785 5785 5784 5784 5784 5784
5819 5817 5816 5814 5812 5810 5809 5806 5805 5803 5801 5800 5798 5797 5796 5795 5793 5792 5791 5790 5789 5789 5788 5788 5787 5787 5786 5786 5786 5785 5785 5784 5784 5783 5782 5781 5780 5780 5779 5779 5779 5779 5779
5814 5813 5811 5810 5808 5806 5804 5802 5801 5799 5797 5796 5794 5793 5792 5790 5789 5787 5786 5785 5784 5784 5783 5783 5782 5782 5781 5781 5780 5780 5779 5779 5778 5777 5776 5775 5775 5774 5773 5773 5773 5773 5773
5810 5808 5807 5805 5803 5801 5800 5798 5796 5795 5793 5792 5790 5788 5787 5786 5784 5783 5781 5780 5779 5778 5778 5777 5776 5776 5775 5775 5775 5774 5774 5773 5772 5772 5770 5769 5769 5768 5767 5767 5768 5768 5767
5805 5803 5802 5800 5798 5797 5795 5793 5792 5790 5789 5787 5786 5784 5782 5781 5780 5778 5777 5775 5774 5773 5772 5772 5771 5770 5770 5769 5769 5768 5768 5767 5766 5765 5764 5763 5762 5762 5762 5762 5762 5762 5762
5800 5798 5797 5795 5794 5792 5790 5788 5787 5785 5784 5782 5781 5779 5777 5776 5774 5773 5772 5770 5769 5768 5767 5766 5765 5765 5764 5763 5763 5763 5762 5761 5760 5759 5758 5757 5757 5756 5756 5756 5756 5756 5756
5794 5793 5791 5790 5789 5787 5785 5783 5782 5781 5779 5777 5775 5774 5772 5771 5769 5768 5766 5765 5764 5763 5762 5761 5760 5759 5758 5758 5757 5756 5756 5755 5754 5753 5752 5751 5751 5750 5750 5750 5750 5750 5750
5788 5787 5786 5785 5784 5782 5780 5778 5777 5775 5773 5772 5770 5768 5767 5765 5764 5762 5761 5760 5758 5757 5756 5755 5754 5754 5753 5752 5751 5750 5750 5749 5748 5747 5746 5746 5745 5745 5744 5744 5744 5744 5743
5782 5781 5780 5779 5778 5776 5774 5773 5771 5769 5768 5766 5764 5763 5761 5759 5758 5757 5755 5754 5752 5751 5750 5750 5749 5748 5747 5746 5745 5744 5744 5743 5742 5741 5740 5740 5739 5739 5738 5738 5738 5737 5736
5776 5775 5774 5773 5771 5770 5768 5766 5765 5763 5761 5760 5758 5756 5755 5753 5752 5750 5749 5748 5747 5746 5745 5744 5743 5742 5741 5740 5739 5739 5738 5737 5736 5735 5734 5734 5733 5733 5732 5732 5732 5731 5730
5768 5768 5767 5766 5765 5763 5761 5760 5758 5756 5755 5753 5752 5750 5749 5747 5746 5744 5743 5742 5741 5740 5739 5738 5737 5736 5735 5734 5733 5732 5732 5731 5730 5729 5728 5728 5727 5726 5726 5725 5725 5724 5723
5762 5761 5760 5759 5758 5756 5755 5753 5751 5750 5748 5747 5745 5744 5742 5741 5739 5738 5737 5735 5734 5734 5733 5732 5731 5730 5729 5728 5727 5726 5725 5724 5724 5723 5722 5722 5721 5720 5719 5718 5718 5717 5716
5754 5753 5752 5751 5750 5749 5747 5746 5744 5743 5742 5740 5739 5737 5736 5734 5732 5731 5730 5729 5728 5727 5727 5726 5725 5723 5723 5722 5721 5720 5719 5718 5717 5717 5716 5715 5714 5713 5712 5711 5710 5709 5708
5746 5745 5744 5743 5742 5741 5740 5738 5737 5736 5735 5733 5732 5730 5729 5728 5726 5724 5723 5722 5721 5721 5720 5719 5718 5717 5716 5715 5714 5713 5712 5711 5710 5709 5708 5707 5707 5706 5705 5704 5702 5701 5700
5737 5736 5736 5735 5734 5733 5732 5731 5730 5729 5727 5726 5725 5723 5722 5721 5719 5718 5716 5715 5715 5714 5713 5712 5712 5711 5710 5709 5707 5706 5705 5704 5703 5702 5701 5700 5699 5698 5697 5696 5694 5693 5692
5728 5728 5727 5726 5726 5725 5724 5723 5722 5721 5720 5719 5717 5716 5715 5713 5712 5711 5710 5708 5708 5706 5706 5705 5704 5704 5703 5702 5700 5699 5698 5696 5695 5694 5693 5692 5691 5690 5689 5687 5686 5684 5683
5719 5719 5718 5717 5717 5716 5716 5715 5714 5712 5711 5710 5709 5708 5707 5706 5704 5703 5702 5701 5700 5699 5698 5697 5696 5696 5695 5693 5692 5691 5690 5688 5687 5686 5685 5684 5682 5681 5680 5678 5677 5676 5674